Content
SEND FEEDBACK

Daily
Averages
Monthly
Summary
United States of America

ROCK HILL, NEW YORK


Home > North America > United States > New York
Elevation: 1260 feet     Latitude: 41 35N     Longitude: 074 37W

WEATHER
 
SELECT A DAY
Number of Records: 452,718;   Date Range: 1/1/95 - 11/21/14
 
SHARE

PRINT THIS DATA

[ ← Previous Day ]
WEATHER ALMANAC - DECEMBER 13, 2013
[ Next Day → ]
[ °C ]   °F
Weather ElementAverageHighLow
Temperature20 °F26.6 °F (2:35 pm) (4:15 am)
Dewpoint8 °F15.8 °F (6:55 pm) (7:00 pm)
Humidity59.1 %74 % (7:15 pm)51 % (3:55 pm)
Barometer30.08 in30.28 in (11:55 pm)29.98 in (2:55 am)
Wind Speed8.1 mph17.3 mph (12:55 pm)
Wind Gust27.6 mph (11:55 am)
Weather ElementAverage
Visibility9.9 mi
Wind DirectionSW (223.2 °)

Weather ElementTotal
Precipitation---
Heating Degree Days51.7 (Base 65)
Averaged from 68 records on December 13, 2013
WEATHER CONDITIONS BREAKOUT
WIND DIRECTION BREAKOUT
WEATHER BY HOUR - DECEMBER 13, 2013
[ °C ]   °F
Local TimeTemperatureDewpointHumidityBarometerVisibilityWind DirectionWind SpeedGust SpeedPrecipitationEventsConditions
12:35 AM15.8 °F3.2 °F58 %30.01 in10.0 miCalmOvercast
12:55 AM15.8 °F3.2 °F58 %30.00 in10.0 miCalmOvercast
1:15 AM15.8 °F3.2 °F58 %29.99 in10.0 miCalmOvercast
1:35 AM15.8 °F1.4 °F53 %29.99 in10.0 miCalmOvercast
1:55 AM15.8 °F3.2 °F58 %29.99 in10.0 miCalmOvercast
2:15 AM15.8 °F3.2 °F58 %29.99 in10.0 miCalmOvercast
2:35 AM15.8 °F3.2 °F58 %29.99 in10.0 miCalmOvercast
2:55 AM15.8 °F1.4 °F53 %29.98 in10.0 miCalmOvercast
3:15 AM15.8 °F1.4 °F53 %29.98 in10.0 miCalmOvercast
3:35 AM15.8 °F1.4 °F53 %29.98 in10.0 miCalmOvercast
3:55 AM15.8 °F3.2 °F58 %29.99 in10.0 miCalmOvercast
4:15 AM0.0 °F0.0 °FNorth
4:35 AM0.0 °F0.0 °FNorth
5:15 AM15.8 °F1.4 °F53 %29.98 in10.0 miWest (270°)9.2 mph
5:35 AM15.8 °F1.4 °F53 %29.99 in10.0 miWSW (250°)10.4 mph16.1 mphOvercast
5:55 AM15.8 °F3.2 °F58 %29.99 in10.0 miWest (260°)10.4 mphOvercast
6:15 AM15.8 °F3.2 °F58 %30.00 in10.0 miWSW (250°)9.2 mphOvercast
6:35 AM15.8 °F1.4 °F53 %30.01 in10.0 miWSW (250°)10.4 mph16.1 mphOvercast
6:55 AM15.8 °F3.2 °F58 %30.01 in10.0 miWest (260°)11.5 mph18.4 mphOvercast
7:15 AM15.8 °F3.2 °F58 %30.01 in10.0 miWest (260°)9.2 mph16.1 mphOvercast
7:35 AM15.8 °F3.2 °F58 %30.02 in10.0 miWSW (250°)8.1 mph17.3 mphMostly Cloudy
7:55 AM17.6 °F3.2 °F53 %30.02 in10.0 miWest (260°)9.2 mphOvercast
8:15 AM17.6 °F3.2 °F53 %30.03 in10.0 miWSW (250°)9.2 mphOvercast
8:35 AM17.6 °F3.2 °F53 %30.04 in10.0 miWest (260°)8.1 mphOvercast
8:55 AM17.6 °F5.0 °F58 %30.04 in10.0 miWest (260°)8.1 mphScattered Clouds
9:15 AM19.4 °F6.8 °F58 %30.04 in10.0 miWSW (250°)9.2 mph16.1 mphMostly Cloudy
9:35 AM19.4 °F6.8 °F58 %30.04 in10.0 miWest (260°)11.5 mphOvercast
9:55 AM21.2 °F8.6 °F58 %30.05 in10.0 miWest (280°)9.2 mph16.1 mphMostly Cloudy
10:55 AM23.0 °F10.4 °F59 %30.05 inWest (270°)15.0 mph20.7 mph
11:15 AM24.8 °F10.4 °F54 %30.04 in10.0 miWest (270°)9.2 mph19.6 mphMostly Cloudy
11:35 AM24.8 °F10.4 °F54 %30.03 in10.0 miWNW (290°)16.1 mph24.2 mphMostly Cloudy
11:55 AM24.8 °F10.4 °F54 %30.04 in10.0 miWNW (290°)12.7 mph27.6 mphOvercast
12:15 PM24.8 °F10.4 °F54 %30.03 in10.0 miWest (280°)16.1 mph23.0 mphOvercast
12:35 PM24.8 °F10.4 °F54 %30.03 in10.0 miWest (280°)13.8 mph25.3 mphMostly Cloudy
12:55 PM24.8 °F10.4 °F54 %30.03 in10.0 miWest (280°)17.3 mph27.6 mphScattered Clouds
1:15 PM24.8 °F10.4 °F54 %30.03 in10.0 miWest (270°)12.7 mph25.3 mphScattered Clouds
1:35 PM24.8 °F10.4 °F54 %30.04 in10.0 miWest (270°)12.7 mph23.0 mphScattered Clouds
1:55 PM24.8 °F10.4 °F54 %30.04 in10.0 miWNW (290°)16.1 mph25.3 mphMostly Cloudy
2:15 PM24.8 °F10.4 °F54 %30.05 in10.0 miWest (280°)11.5 mph18.4 mphMostly Cloudy
2:35 PM26.6 °F12.2 °F55 %30.05 in10.0 miWest (270°)15.0 mph18.4 mphOvercast
2:55 PM26.6 °F12.2 °F55 %30.06 in10.0 miWNW (290°)8.1 mphOvercast
3:15 PM24.8 °F10.4 °F54 %30.07 in10.0 miWest (280°)16.1 mph24.2 mphMostly Cloudy
3:35 PM26.6 °F12.2 °F55 %30.08 in10.0 miWNW (290°)10.4 mph16.1 mphOvercast
3:55 PM26.6 °F10.4 °F51 %30.09 in10.0 miWest (270°)9.2 mphOvercast
4:15 PM24.8 °F12.2 °F59 %30.09 in10.0 miWest (270°)11.5 mph18.4 mphOvercast
4:35 PM24.8 °F12.2 °F59 %30.10 in10.0 miWest (270°)11.5 mph19.6 mphOvercast
4:55 PM24.8 °F12.2 °F59 %30.11 in10.0 miWest (270°)11.5 mphMostly Cloudy
5:15 PM24.8 °F12.2 °F59 %30.12 in10.0 miWest (260°)6.9 mphScattered Clouds
5:35 PM24.8 °F12.2 °F59 %30.12 in10.0 miWest (270°)10.4 mph18.4 mphScattered Clouds
5:55 PM24.8 °F12.2 °F59 %30.13 in10.0 miWest (280°)10.4 mphMostly Cloudy
6:15 PM24.8 °F12.2 °F59 %30.14 in10.0 miWNW (300°)8.1 mphMostly Cloudy
6:35 PM24.8 °F14.0 °F64 %30.16 in10.0 miNW (310°)8.1 mphOvercast
6:55 PM24.8 °F15.8 °F69 %30.17 in7.0 miWNW (300°)5.8 mphOvercast
7:15 PM23.0 °F15.8 °F74 %30.18 in9.0 miWNW (300°)8.1 mphOvercast
7:35 PM23.0 °F15.8 °F74 %30.19 in10.0 miWNW (300°)8.1 mphOvercast
7:55 PM23.0 °F15.8 °F74 %30.20 in10.0 miNNW (340°)6.9 mphOvercast
8:15 PM21.2 °F12.2 °F68 %30.21 in10.0 miNorth (10°)9.2 mphOvercast
8:35 PM21.2 °F12.2 °F68 %30.22 in10.0 miNorth (350°)10.4 mphOvercast
8:55 PM19.4 °F12.2 °F74 %30.22 in10.0 miNorth (350°)9.2 mphOvercast
9:15 PM19.4 °F12.2 °F74 %30.23 in10.0 miNorth (360°)4.6 mphOvercast
9:35 PM19.4 °F10.4 °F68 %30.23 in10.0 miNNW (340°)8.1 mphOvercast
9:55 PM19.4 °F10.4 °F68 %30.24 in10.0 miCalmOvercast
10:15 PM19.4 °F8.6 °F63 %30.25 in10.0 miNW (310°)4.6 mphOvercast
10:35 PM19.4 °F8.6 °F63 %30.26 in10.0 miWNW (300°)4.6 mphOvercast
10:55 PM19.4 °F8.6 °F63 %30.27 in10.0 miNW (320°)5.8 mphOvercast
11:15 PM19.4 °F8.6 °F63 %30.27 in10.0 miNNW (340°)4.6 mphOvercast
11:35 PM19.4 °F8.6 °F63 %30.27 in10.0 miNorth (350°)8.1 mphOvercast
11:55 PM17.6 °F8.6 °F68 %30.28 in10.0 miNNW (340°)4.6 mphOvercast
Hourly data recorded from KMSV, located miles away from Rock Hill, New York







STORIES FROM OUR PARTNERS